Year,Month,Day,Hour,Minute,Value (Times are PST for windspeed in km/hr)
2017,05,20,00,00,0.00
2017,05,20,00,01,0.00
2017,05,20,00,02,0.00
2017,05,20,00,03,0.00
2017,05,20,00,04,0.00
2017,05,20,00,05,0.00
2017,05,20,00,06,0.00
2017,05,20,00,07,0.00
2017,05,20,00,08,0.10
2017,05,20,00,09,0.00
2017,05,20,00,10,0.00
2017,05,20,00,11,0.00
2017,05,20,00,12,0.00
2017,05,20,00,13,0.00
2017,05,20,00,14,0.00
2017,05,20,00,15,0.00
2017,05,20,00,16,0.00
2017,05,20,00,17,0.00
2017,05,20,00,18,0.00
2017,05,20,00,19,0.00
2017,05,20,00,20,0.30
2017,05,20,00,21,2.00
2017,05,20,00,22,3.50
2017,05,20,00,23,2.90
2017,05,20,00,24,2.30
2017,05,20,00,25,1.10
2017,05,20,00,26,2.50
2017,05,20,00,27,1.50
2017,05,20,00,28,1.60
2017,05,20,00,29,1.40
2017,05,20,00,30,1.90
2017,05,20,00,31,0.60
2017,05,20,00,32,0.00
2017,05,20,00,33,0.00
2017,05,20,00,34,0.00
2017,05,20,00,35,0.00
2017,05,20,00,36,0.00
2017,05,20,00,37,0.00
2017,05,20,00,38,0.00
2017,05,20,00,39,0.00
2017,05,20,00,40,0.00
2017,05,20,00,41,0.00
2017,05,20,00,42,2.70
2017,05,20,00,43,3.50
2017,05,20,00,44,3.00
2017,05,20,00,45,2.50
2017,05,20,00,46,1.30
2017,05,20,00,47,0.60
2017,05,20,00,48,0.00
2017,05,20,00,49,0.00
2017,05,20,00,50,0.00
2017,05,20,00,51,0.00
2017,05,20,00,52,0.00
2017,05,20,00,53,0.00
2017,05,20,00,54,0.00
2017,05,20,00,55,0.00
2017,05,20,00,56,0.00
2017,05,20,00,57,0.00
2017,05,20,00,58,0.00
2017,05,20,00,59,0.00
2017,05,20,01,00,0.00
2017,05,20,01,01,0.00
2017,05,20,01,02,0.00
2017,05,20,01,03,0.00
2017,05,20,01,04,0.00
2017,05,20,01,05,0.00
2017,05,20,01,06,0.00
2017,05,20,01,07,0.00
2017,05,20,01,08,0.00
2017,05,20,01,09,0.00
2017,05,20,01,10,0.00
2017,05,20,01,11,0.80
2017,05,20,01,12,0.20
2017,05,20,01,13,0.30
2017,05,20,01,14,0.00
2017,05,20,01,15,0.00
2017,05,20,01,16,0.00
2017,05,20,01,17,0.00
2017,05,20,01,18,0.00
2017,05,20,01,19,0.00
2017,05,20,01,20,0.00
2017,05,20,01,21,0.00
2017,05,20,01,22,0.00
2017,05,20,01,23,0.00
2017,05,20,01,24,0.00
2017,05,20,01,25,0.00
2017,05,20,01,26,0.00
2017,05,20,01,27,0.00
2017,05,20,01,28,0.00
2017,05,20,01,29,0.00
2017,05,20,01,30,0.00
2017,05,20,01,31,0.00
2017,05,20,01,32,0.00
2017,05,20,01,33,0.00
2017,05,20,01,34,0.00
2017,05,20,01,35,0.00
2017,05,20,01,36,0.00
2017,05,20,01,37,0.00
2017,05,20,01,38,0.00
2017,05,20,01,39,0.00
2017,05,20,01,40,0.00
2017,05,20,01,41,0.00
2017,05,20,01,42,0.00
2017,05,20,01,43,0.00
2017,05,20,01,44,0.00
2017,05,20,01,45,0.00
2017,05,20,01,46,0.00
2017,05,20,01,47,0.00
2017,05,20,01,48,0.00
2017,05,20,01,49,0.00
2017,05,20,01,50,0.00
2017,05,20,01,51,0.00
2017,05,20,01,52,0.00
2017,05,20,01,53,0.10
2017,05,20,01,54,0.00
2017,05,20,01,55,0.60
2017,05,20,01,56,2.00
2017,05,20,01,57,1.20
2017,05,20,01,58,2.80
2017,05,20,01,59,3.60
2017,05,20,02,00,2.60
2017,05,20,02,01,1.10
2017,05,20,02,02,1.10
2017,05,20,02,03,0.40
2017,05,20,02,04,0.00
2017,05,20,02,05,1.00
2017,05,20,02,06,0.30
2017,05,20,02,07,0.20
2017,05,20,02,08,0.00
2017,05,20,02,09,0.00
2017,05,20,02,10,0.00
2017,05,20,02,11,0.00
2017,05,20,02,12,2.20
2017,05,20,02,13,1.90
2017,05,20,02,14,1.40
2017,05,20,02,15,0.30
2017,05,20,02,16,0.20
2017,05,20,02,17,1.60
2017,05,20,02,18,0.20
2017,05,20,02,19,0.10
2017,05,20,02,20,0.60
2017,05,20,02,21,0.00
2017,05,20,02,22,0.00
2017,05,20,02,23,0.00
2017,05,20,02,24,0.00
2017,05,20,02,25,0.00
2017,05,20,02,26,0.00
2017,05,20,02,27,0.00
2017,05,20,02,28,0.00
2017,05,20,02,29,0.00
2017,05,20,02,30,0.00
2017,05,20,02,31,0.00
2017,05,20,02,32,0.00
2017,05,20,02,33,0.00
2017,05,20,02,34,0.00
2017,05,20,02,35,0.00
2017,05,20,02,36,0.00
2017,05,20,02,37,0.00
2017,05,20,02,38,0.00
2017,05,20,02,39,0.00
2017,05,20,02,40,0.00
2017,05,20,02,41,0.00
2017,05,20,02,42,0.00
2017,05,20,02,43,0.00
2017,05,20,02,44,0.00
2017,05,20,02,45,0.00
2017,05,20,02,46,0.00
2017,05,20,02,47,0.00
2017,05,20,02,48,0.00
2017,05,20,02,49,0.00
2017,05,20,02,50,0.00
2017,05,20,02,51,0.00
2017,05,20,02,52,0.00
2017,05,20,02,53,0.00
2017,05,20,02,54,0.00
2017,05,20,02,55,0.00
2017,05,20,02,56,0.20
2017,05,20,02,57,3.60
2017,05,20,02,58,3.20
2017,05,20,02,59,2.00
2017,05,20,03,00,1.60
2017,05,20,03,01,3.00
2017,05,20,03,02,3.90
2017,05,20,03,03,3.10
2017,05,20,03,04,1.60
2017,05,20,03,05,2.40
2017,05,20,03,06,0.00
2017,05,20,03,07,0.00
2017,05,20,03,08,0.00
2017,05,20,03,09,0.00
2017,05,20,03,10,0.00
2017,05,20,03,11,0.00
2017,05,20,03,12,0.00
2017,05,20,03,13,0.00
2017,05,20,03,14,0.00
2017,05,20,03,15,0.00
2017,05,20,03,16,0.00
2017,05,20,03,17,0.00
2017,05,20,03,18,0.00
2017,05,20,03,19,0.00
2017,05,20,03,20,0.00
2017,05,20,03,21,0.00
2017,05,20,03,22,0.00
2017,05,20,03,23,0.00
2017,05,20,03,24,0.00
2017,05,20,03,25,0.00
2017,05,20,03,26,0.00
2017,05,20,03,27,0.00
2017,05,20,03,28,0.00
2017,05,20,03,29,0.00
2017,05,20,03,30,0.00
2017,05,20,03,31,0.00
2017,05,20,03,32,0.00
2017,05,20,03,33,0.00
2017,05,20,03,34,0.00
2017,05,20,03,35,0.00
2017,05,20,03,36,0.00
2017,05,20,03,37,0.00
2017,05,20,03,38,0.00
2017,05,20,03,39,0.00
2017,05,20,03,40,0.00
2017,05,20,03,41,0.00
2017,05,20,03,42,0.60
2017,05,20,03,43,1.50
2017,05,20,03,44,1.60
2017,05,20,03,45,1.50
2017,05,20,03,46,0.10
2017,05,20,03,47,0.00
2017,05,20,03,48,0.00
2017,05,20,03,49,0.00
2017,05,20,03,50,0.00
2017,05,20,03,51,0.00
2017,05,20,03,52,0.00
2017,05,20,03,53,0.00
2017,05,20,03,54,0.00
2017,05,20,03,55,0.00
2017,05,20,03,56,0.00
2017,05,20,03,57,0.90
2017,05,20,03,58,2.70
2017,05,20,03,59,1.10
2017,05,20,04,00,0.50
2017,05,20,04,01,3.50
2017,05,20,04,02,2.00
2017,05,20,04,03,0.00
2017,05,20,04,04,0.00
2017,05,20,04,05,0.00
2017,05,20,04,06,0.00
2017,05,20,04,07,0.00
2017,05,20,04,08,0.00
2017,05,20,04,09,0.00
2017,05,20,04,10,0.00
2017,05,20,04,11,1.00
2017,05,20,04,12,3.40
2017,05,20,04,13,3.00
2017,05,20,04,14,3.90
2017,05,20,04,15,2.50
2017,05,20,04,16,3.10
2017,05,20,04,17,1.40
2017,05,20,04,18,0.20
2017,05,20,04,19,0.70
2017,05,20,04,20,0.10
2017,05,20,04,21,0.00
2017,05,20,04,22,0.00
2017,05,20,04,23,0.00
2017,05,20,04,24,0.00
2017,05,20,04,25,0.00
2017,05,20,04,26,0.00
2017,05,20,04,27,0.00
2017,05,20,04,28,0.00
2017,05,20,04,29,0.00
2017,05,20,04,30,0.00
2017,05,20,04,31,0.00
2017,05,20,04,32,0.00
2017,05,20,04,33,0.00
2017,05,20,04,34,0.00
2017,05,20,04,35,0.00
2017,05,20,04,36,0.00
2017,05,20,04,37,0.00
2017,05,20,04,38,0.00
2017,05,20,04,39,0.00
2017,05,20,04,40,0.00
2017,05,20,04,41,0.00
2017,05,20,04,42,0.00
2017,05,20,04,43,0.00
2017,05,20,04,44,0.00
2017,05,20,04,45,0.00
2017,05,20,04,46,0.00
2017,05,20,04,47,0.00
2017,05,20,04,48,0.00
2017,05,20,04,49,0.00
2017,05,20,04,50,0.00
2017,05,20,04,51,0.00
2017,05,20,04,52,0.00
2017,05,20,04,53,0.00
2017,05,20,04,54,0.00
2017,05,20,04,55,0.00
2017,05,20,04,56,0.00
2017,05,20,04,57,0.00
2017,05,20,04,58,0.00
2017,05,20,04,59,1.70
2017,05,20,05,00,0.00
2017,05,20,05,01,0.00
2017,05,20,05,02,0.00
2017,05,20,05,03,0.00
2017,05,20,05,04,0.00
2017,05,20,05,05,0.00
2017,05,20,05,06,0.00
2017,05,20,05,07,0.00
2017,05,20,05,08,0.00
2017,05,20,05,09,0.00
2017,05,20,05,10,0.00
2017,05,20,05,11,0.00
2017,05,20,05,12,0.00
2017,05,20,05,13,0.00
2017,05,20,05,14,0.00
2017,05,20,05,15,0.00
2017,05,20,05,16,0.00
2017,05,20,05,17,0.00
2017,05,20,05,18,0.00
2017,05,20,05,19,0.00
2017,05,20,05,20,0.00
2017,05,20,05,21,0.00
2017,05,20,05,22,0.00
2017,05,20,05,23,0.00
2017,05,20,05,24,0.00
2017,05,20,05,25,0.00
2017,05,20,05,26,0.00
2017,05,20,05,27,0.00
2017,05,20,05,28,0.00
2017,05,20,05,29,0.00
2017,05,20,05,30,0.00
2017,05,20,05,31,0.00
2017,05,20,05,32,0.00
2017,05,20,05,33,0.00
2017,05,20,05,34,0.00
2017,05,20,05,35,0.00
2017,05,20,05,36,0.00
2017,05,20,05,37,0.00
2017,05,20,05,38,0.00
2017,05,20,05,39,0.00
2017,05,20,05,40,0.00
2017,05,20,05,41,0.00
2017,05,20,05,42,0.00
2017,05,20,05,43,0.00
2017,05,20,05,44,0.00
2017,05,20,05,45,0.00
2017,05,20,05,46,0.00
2017,05,20,05,47,0.00
2017,05,20,05,48,0.00
2017,05,20,05,49,0.00
2017,05,20,05,50,0.00
2017,05,20,05,51,0.00
2017,05,20,05,52,0.00
2017,05,20,05,53,0.00
2017,05,20,05,54,0.00
2017,05,20,05,55,0.00
2017,05,20,05,56,0.00
2017,05,20,05,57,0.00
2017,05,20,05,58,0.00
2017,05,20,05,59,0.00
2017,05,20,06,00,0.00
2017,05,20,06,01,0.00
2017,05,20,06,02,0.00
2017,05,20,06,03,0.00
2017,05,20,06,04,0.00
2017,05,20,06,05,0.00
2017,05,20,06,06,0.00
2017,05,20,06,07,0.20
2017,05,20,06,08,1.10
2017,05,20,06,09,1.40
2017,05,20,06,10,0.60
2017,05,20,06,11,0.00
2017,05,20,06,12,0.00
2017,05,20,06,13,0.00
2017,05,20,06,14,0.00
2017,05,20,06,15,0.00
2017,05,20,06,16,0.00
2017,05,20,06,17,0.00
2017,05,20,06,18,0.00
2017,05,20,06,19,0.00
2017,05,20,06,20,0.00
2017,05,20,06,21,0.00
2017,05,20,06,22,0.00
2017,05,20,06,23,0.00
2017,05,20,06,24,0.00
2017,05,20,06,25,0.00
2017,05,20,06,26,0.00
2017,05,20,06,27,0.00
2017,05,20,06,28,1.90
2017,05,20,06,29,1.10
2017,05,20,06,30,2.20
2017,05,20,06,31,0.60
2017,05,20,06,32,0.20
2017,05,20,06,33,1.00
2017,05,20,06,34,1.00
2017,05,20,06,35,0.60
2017,05,20,06,36,0.00
2017,05,20,06,37,0.00
2017,05,20,06,38,0.60
2017,05,20,06,39,0.00
2017,05,20,06,40,0.50
2017,05,20,06,41,0.00
2017,05,20,06,42,0.00
2017,05,20,06,43,0.00
2017,05,20,06,44,0.00
2017,05,20,06,45,0.00
2017,05,20,06,46,0.00
2017,05,20,06,47,0.00
2017,05,20,06,48,0.50
2017,05,20,06,49,2.10
2017,05,20,06,50,1.50
2017,05,20,06,51,0.50
2017,05,20,06,52,0.80
2017,05,20,06,53,1.60
2017,05,20,06,54,2.50
2017,05,20,06,55,2.10
2017,05,20,06,56,3.80
2017,05,20,06,57,4.10
2017,05,20,06,58,2.80
2017,05,20,06,59,3.00
2017,05,20,07,00,3.50
2017,05,20,07,01,4.70
2017,05,20,07,02,4.90
2017,05,20,07,03,4.00
2017,05,20,07,04,2.40
2017,05,20,07,05,2.40
2017,05,20,07,06,3.40
2017,05,20,07,07,3.30
2017,05,20,07,08,3.00
2017,05,20,07,09,3.20
2017,05,20,07,10,4.50
2017,05,20,07,11,4.00
2017,05,20,07,12,4.90
2017,05,20,07,13,4.50
2017,05,20,07,14,4.70
2017,05,20,07,15,4.20
2017,05,20,07,16,4.50
2017,05,20,07,17,3.60
2017,05,20,07,18,3.60
2017,05,20,07,19,3.20
2017,05,20,07,20,3.30
2017,05,20,07,21,4.10
2017,05,20,07,22,4.30
2017,05,20,07,23,3.80
2017,05,20,07,24,3.90
2017,05,20,07,25,5.10
2017,05,20,07,26,5.20
2017,05,20,07,27,4.70
2017,05,20,07,28,4.40
2017,05,20,07,29,3.80
2017,05,20,07,30,2.60
2017,05,20,07,31,3.50
2017,05,20,07,32,2.30
2017,05,20,07,33,1.70
2017,05,20,07,34,1.80
2017,05,20,07,35,2.30
2017,05,20,07,36,2.90
2017,05,20,07,37,3.80
2017,05,20,07,38,2.60
2017,05,20,07,39,2.20
2017,05,20,07,40,1.90
2017,05,20,07,41,3.20
2017,05,20,07,42,3.40
2017,05,20,07,43,2.60
2017,05,20,07,44,1.90
2017,05,20,07,45,1.10
2017,05,20,07,46,0.60
2017,05,20,07,47,1.30
2017,05,20,07,48,0.90
2017,05,20,07,49,0.20
2017,05,20,07,50,0.70
2017,05,20,07,51,0.40
2017,05,20,07,52,0.50
2017,05,20,07,53,0.10
2017,05,20,07,54,1.30
2017,05,20,07,55,1.90
2017,05,20,07,56,2.00
2017,05,20,07,57,1.40
2017,05,20,07,58,0.00
2017,05,20,07,59,0.00
2017,05,20,08,00,2.20
2017,05,20,08,01,2.10
2017,05,20,08,02,2.60
2017,05,20,08,03,1.10
2017,05,20,08,04,1.90
2017,05,20,08,05,2.30
2017,05,20,08,06,1.90
2017,05,20,08,07,1.00
2017,05,20,08,08,3.70
2017,05,20,08,09,3.90
2017,05,20,08,10,2.50
2017,05,20,08,11,2.50
2017,05,20,08,12,1.60
2017,05,20,08,13,2.60
2017,05,20,08,14,2.50
2017,05,20,08,15,2.20
2017,05,20,08,16,0.60
2017,05,20,08,17,2.40
2017,05,20,08,18,3.90
2017,05,20,08,19,2.00
2017,05,20,08,20,1.30
2017,05,20,08,21,2.80
2017,05,20,08,22,4.30
2017,05,20,08,23,3.20
2017,05,20,08,24,4.30
2017,05,20,08,25,4.10
2017,05,20,08,26,4.90
2017,05,20,08,27,2.80
2017,05,20,08,28,2.60
2017,05,20,08,29,2.80
2017,05,20,08,30,3.50
2017,05,20,08,31,4.30
2017,05,20,08,32,4.60
2017,05,20,08,33,5.60
2017,05,20,08,34,4.10
2017,05,20,08,35,3.30
2017,05,20,08,36,3.50
2017,05,20,08,37,2.20
2017,05,20,08,38,2.60
2017,05,20,08,39,2.10
2017,05,20,08,40,2.60
2017,05,20,08,41,2.10
2017,05,20,08,42,3.00
2017,05,20,08,43,2.70
2017,05,20,08,44,3.10
2017,05,20,08,45,2.10
2017,05,20,08,46,1.10
2017,05,20,08,47,1.40
2017,05,20,08,48,2.00
2017,05,20,08,49,2.80
2017,05,20,08,50,3.10
2017,05,20,08,51,2.70
2017,05,20,08,52,2.20
2017,05,20,08,53,2.80
2017,05,20,08,54,2.20
2017,05,20,08,55,1.30
2017,05,20,08,56,3.90
2017,05,20,08,57,3.90
2017,05,20,08,58,4.70
2017,05,20,08,59,4.60
2017,05,20,09,00,5.10
2017,05,20,09,01,3.80
2017,05,20,09,02,4.70
2017,05,20,09,03,4.60
2017,05,20,09,04,4.00
2017,05,20,09,05,5.30
2017,05,20,09,06,6.00
2017,05,20,09,07,5.20
2017,05,20,09,08,5.90
2017,05,20,09,09,6.40
2017,05,20,09,10,5.80
2017,05,20,09,11,6.50
2017,05,20,09,12,8.60
2017,05,20,09,13,9.60
2017,05,20,09,14,7.80
2017,05,20,09,15,5.70
2017,05,20,09,16,5.70
2017,05,20,09,17,4.10
2017,05,20,09,18,4.60
2017,05,20,09,19,6.80
2017,05,20,09,20,7.20
2017,05,20,09,21,3.30
2017,05,20,09,22,3.10
2017,05,20,09,23,5.30
2017,05,20,09,24,4.60
2017,05,20,09,25,4.10
2017,05,20,09,26,3.90
2017,05,20,09,27,4.90
2017,05,20,09,28,6.90
2017,05,20,09,29,8.90
2017,05,20,09,30,7.90
2017,05,20,09,31,9.80
2017,05,20,09,32,6.70
2017,05,20,09,33,5.50
2017,05,20,09,34,4.20
2017,05,20,09,35,6.40
2017,05,20,09,36,6.30
2017,05,20,09,37,7.10
2017,05,20,09,38,7.70
2017,05,20,09,39,7.80
2017,05,20,09,40,9.30
2017,05,20,09,41,7.30
2017,05,20,09,42,5.80
2017,05,20,09,43,7.20
2017,05,20,09,44,7.10
2017,05,20,09,45,7.60
2017,05,20,09,46,5.10
2017,05,20,09,47,5.60
2017,05,20,09,48,8.60
2017,05,20,09,49,6.10
2017,05,20,09,50,10.20
2017,05,20,09,51,9.30
2017,05,20,09,52,7.50
2017,05,20,09,53,9.50
2017,05,20,09,54,9.30
2017,05,20,09,55,10.60
2017,05,20,09,56,6.70
2017,05,20,09,57,7.40
2017,05,20,09,58,6.60
2017,05,20,09,59,8.10
2017,05,20,10,00,9.60
2017,05,20,10,01,6.90
2017,05,20,10,02,6.50
2017,05,20,10,03,6.80
2017,05,20,10,04,6.70
2017,05,20,10,05,7.90
2017,05,20,10,06,7.10
2017,05,20,10,07,7.60
2017,05,20,10,08,7.10
2017,05,20,10,09,8.90
2017,05,20,10,10,6.90
2017,05,20,10,11,6.30
2017,05,20,10,12,6.40
2017,05,20,10,13,7.20
2017,05,20,10,14,6.50
2017,05,20,10,15,6.80
2017,05,20,10,16,5.40
2017,05,20,10,17,7.30
2017,05,20,10,18,4.70
2017,05,20,10,19,8.50
2017,05,20,10,20,9.20
2017,05,20,10,21,6.80
2017,05,20,10,22,8.30
2017,05,20,10,23,8.20
2017,05,20,10,24,7.10
2017,05,20,10,25,6.70
2017,05,20,10,26,5.90
2017,05,20,10,27,6.30
2017,05,20,10,28,9.20
2017,05,20,10,29,9.40
2017,05,20,10,30,7.40
2017,05,20,10,31,8.90
2017,05,20,10,32,5.40
2017,05,20,10,33,10.00
2017,05,20,10,34,13.40
2017,05,20,10,35,14.00
2017,05,20,10,36,9.30
2017,05,20,10,37,7.20
2017,05,20,10,38,8.60
2017,05,20,10,39,10.20
2017,05,20,10,40,11.30
2017,05,20,10,41,11.80
2017,05,20,10,42,13.60
2017,05,20,10,43,15.40
2017,05,20,10,44,16.40
2017,05,20,10,45,14.60
2017,05,20,10,46,15.00
2017,05,20,10,47,9.00
2017,05,20,10,48,11.50
2017,05,20,10,49,13.60
2017,05,20,10,50,14.10
2017,05,20,10,51,10.20
2017,05,20,10,52,11.30
2017,05,20,10,53,12.90
2017,05,20,10,54,6.50
2017,05,20,10,55,9.20
2017,05,20,10,56,11.70
2017,05,20,10,57,11.00
2017,05,20,10,58,7.90
2017,05,20,10,59,7.00
2017,05,20,11,00,10.50
2017,05,20,11,01,9.30
2017,05,20,11,02,12.10
2017,05,20,11,03,12.70
2017,05,20,11,04,14.50
2017,05,20,11,05,14.60
2017,05,20,11,06,13.00
2017,05,20,11,07,8.50
2017,05,20,11,08,10.50
2017,05,20,11,09,8.20
2017,05,20,11,10,7.10
2017,05,20,11,11,9.80
2017,05,20,11,12,5.90
2017,05,20,11,13,5.60
2017,05,20,11,14,5.80
2017,05,20,11,15,5.80
2017,05,20,11,16,7.20
2017,05,20,11,17,6.70
2017,05,20,11,18,5.40
2017,05,20,11,19,7.20
2017,05,20,11,20,10.80
2017,05,20,11,21,8.90
2017,05,20,11,22,9.00
2017,05,20,11,23,10.50
2017,05,20,11,24,9.70
2017,05,20,11,25,7.10
2017,05,20,11,26,9.40
2017,05,20,11,27,10.50
2017,05,20,11,28,10.60
2017,05,20,11,29,8.80
2017,05,20,11,30,9.80
2017,05,20,11,31,8.10
2017,05,20,11,32,8.70
2017,05,20,11,33,8.40
2017,05,20,11,34,7.90
2017,05,20,11,35,9.10
2017,05,20,11,36,8.30
2017,05,20,11,37,5.80
2017,05,20,11,38,11.30
2017,05,20,11,39,10.40
2017,05,20,11,40,10.90
2017,05,20,11,41,9.30
2017,05,20,11,42,7.60
2017,05,20,11,43,10.70
2017,05,20,11,44,10.80
2017,05,20,11,45,8.80
2017,05,20,11,46,8.40
2017,05,20,11,47,5.70
2017,05,20,11,48,8.30
2017,05,20,11,49,8.20
2017,05,20,11,50,6.80
2017,05,20,11,51,7.70
2017,05,20,11,52,5.80
2017,05,20,11,53,9.70
2017,05,20,11,54,7.20
2017,05,20,11,55,6.80
2017,05,20,11,56,9.70
2017,05,20,11,57,11.70
2017,05,20,11,58,12.60
2017,05,20,11,59,9.40
2017,05,20,12,00,13.10
2017,05,20,12,01,14.80
2017,05,20,12,02,10.60
2017,05,20,12,03,10.90
2017,05,20,12,04,10.50
2017,05,20,12,05,13.80
2017,05,20,12,06,15.80
2017,05,20,12,07,12.80
2017,05,20,12,08,11.20
2017,05,20,12,09,10.10
2017,05,20,12,10,8.20
2017,05,20,12,11,7.90
2017,05,20,12,12,6.90
2017,05,20,12,13,6.70
2017,05,20,12,14,9.50
2017,05,20,12,15,5.90
2017,05,20,12,16,8.70
2017,05,20,12,17,6.60
2017,05,20,12,18,9.40
2017,05,20,12,19,11.10
2017,05,20,12,20,10.10
2017,05,20,12,21,8.70
2017,05,20,12,22,11.50
2017,05,20,12,23,8.40
2017,05,20,12,24,6.70
2017,05,20,12,25,9.70
2017,05,20,12,26,10.50
2017,05,20,12,27,8.80
2017,05,20,12,28,8.80
2017,05,20,12,29,9.60
2017,05,20,12,30,6.60
2017,05,20,12,31,7.50
2017,05,20,12,32,7.40
2017,05,20,12,33,7.90
2017,05,20,12,34,6.70
2017,05,20,12,35,9.70
2017,05,20,12,36,6.80
2017,05,20,12,37,7.50
2017,05,20,12,38,6.90
2017,05,20,12,39,7.70
2017,05,20,12,40,7.30
2017,05,20,12,41,5.70
2017,05,20,12,42,5.80
2017,05,20,12,43,8.50
2017,05,20,12,44,8.50
2017,05,20,12,45,9.60
2017,05,20,12,46,6.50
2017,05,20,12,47,8.50
2017,05,20,12,48,9.90
2017,05,20,12,49,6.70
2017,05,20,12,50,7.30
2017,05,20,12,51,7.30
2017,05,20,12,52,8.40
2017,05,20,12,53,8.40
2017,05,20,12,54,8.50
2017,05,20,12,55,5.10
2017,05,20,12,56,7.50
2017,05,20,12,57,7.30
2017,05,20,12,58,7.50
2017,05,20,12,59,7.30
2017,05,20,13,00,7.30
2017,05,20,13,01,7.40
2017,05,20,13,02,8.60
2017,05,20,13,03,8.20
2017,05,20,13,04,7.50
2017,05,20,13,05,8.40
2017,05,20,13,06,8.00
2017,05,20,13,07,5.90
2017,05,20,13,08,8.60
2017,05,20,13,09,7.20
2017,05,20,13,10,8.40
2017,05,20,13,11,7.70
2017,05,20,13,12,7.30
2017,05,20,13,13,6.90
2017,05,20,13,14,8.00
2017,05,20,13,15,6.00
2017,05,20,13,16,8.10
2017,05,20,13,17,7.70
2017,05,20,13,18,6.80
2017,05,20,13,19,8.10
2017,05,20,13,20,7.00
2017,05,20,13,21,6.80
2017,05,20,13,22,4.50
2017,05,20,13,23,5.90
2017,05,20,13,24,7.50
2017,05,20,13,25,7.70
2017,05,20,13,26,7.20
2017,05,20,13,27,8.20
2017,05,20,13,28,7.20
2017,05,20,13,29,9.80
2017,05,20,13,30,9.90
2017,05,20,13,31,10.00
2017,05,20,13,32,9.20
2017,05,20,13,33,7.00
2017,05,20,13,34,8.00
2017,05,20,13,35,9.90
2017,05,20,13,36,10.10
2017,05,20,13,37,7.40
2017,05,20,13,38,7.40
2017,05,20,13,39,6.50
2017,05,20,13,40,10.10
2017,05,20,13,41,8.80
2017,05,20,13,42,8.90
2017,05,20,13,43,8.40
2017,05,20,13,44,9.80
2017,05,20,13,45,9.30
2017,05,20,13,46,9.90
2017,05,20,13,47,8.90
2017,05,20,13,48,8.30
2017,05,20,13,49,8.70
2017,05,20,13,50,9.60
2017,05,20,13,51,9.90
2017,05,20,13,52,9.70
2017,05,20,13,53,8.40
2017,05,20,13,54,9.20
2017,05,20,13,55,6.40
2017,05,20,13,56,6.90
2017,05,20,13,57,9.00
2017,05,20,13,58,6.70
2017,05,20,13,59,5.30
2017,05,20,14,00,6.60
2017,05,20,14,01,9.40
2017,05,20,14,02,4.80
2017,05,20,14,03,5.80
2017,05,20,14,04,6.30
2017,05,20,14,05,8.50
2017,05,20,14,06,5.60
2017,05,20,14,07,8.90
2017,05,20,14,08,8.10
2017,05,20,14,09,6.00
2017,05,20,14,10,8.20
2017,05,20,14,11,6.80
2017,05,20,14,12,5.70
2017,05,20,14,13,7.70
2017,05,20,14,14,5.10
2017,05,20,14,15,8.50
2017,05,20,14,16,8.80
2017,05,20,14,17,6.90
2017,05,20,14,18,5.40
2017,05,20,14,19,6.50
2017,05,20,14,20,7.30
2017,05,20,14,21,7.00
2017,05,20,14,22,5.20
2017,05,20,14,23,2.60
2017,05,20,14,24,4.90
2017,05,20,14,25,7.70
2017,05,20,14,26,7.20
2017,05,20,14,27,4.30
2017,05,20,14,28,3.30
2017,05,20,14,29,2.70
2017,05,20,14,30,7.10
2017,05,20,14,31,6.10
2017,05,20,14,32,7.30
2017,05,20,14,33,7.10
2017,05,20,14,34,6.00
2017,05,20,14,35,5.20
2017,05,20,14,36,6.20
2017,05,20,14,37,7.60
2017,05,20,14,38,7.30
2017,05,20,14,39,6.50
2017,05,20,14,40,6.40
2017,05,20,14,41,5.10
2017,05,20,14,42,6.30
2017,05,20,14,43,7.10
2017,05,20,14,44,5.20
2017,05,20,14,45,4.70
2017,05,20,14,46,5.60
2017,05,20,14,47,7.70
2017,05,20,14,48,7.10
2017,05,20,14,49,7.00
2017,05,20,14,50,8.60
2017,05,20,14,51,9.70
2017,05,20,14,52,5.60
2017,05,20,14,53,6.00
2017,05,20,14,54,5.10
2017,05,20,14,55,6.40
2017,05,20,14,56,7.00
2017,05,20,14,57,9.00
2017,05,20,14,58,10.60
2017,05,20,14,59,9.10
2017,05,20,15,00,7.10
2017,05,20,15,01,7.80
2017,05,20,15,02,7.00
2017,05,20,15,03,5.40
2017,05,20,15,04,6.30
2017,05,20,15,05,6.80
2017,05,20,15,06,6.30
2017,05,20,15,07,7.30
2017,05,20,15,08,8.40
2017,05,20,15,09,7.60
2017,05,20,15,10,9.50
2017,05,20,15,11,7.30
2017,05,20,15,12,8.00
2017,05,20,15,13,7.70
2017,05,20,15,14,9.60
2017,05,20,15,15,8.90
2017,05,20,15,16,8.50
2017,05,20,15,17,10.30
2017,05,20,15,18,8.50
2017,05,20,15,19,9.10
2017,05,20,15,20,9.00
2017,05,20,15,21,7.00
2017,05,20,15,22,8.60
2017,05,20,15,23,7.40
2017,05,20,15,24,8.50
2017,05,20,15,25,8.30
2017,05,20,15,26,9.30
2017,05,20,15,27,7.90
2017,05,20,15,28,8.10
2017,05,20,15,29,7.20
2017,05,20,15,30,8.70
2017,05,20,15,31,6.40
2017,05,20,15,32,8.80
2017,05,20,15,33,9.70
2017,05,20,15,34,8.40
2017,05,20,15,35,6.70
2017,05,20,15,36,7.50
2017,05,20,15,37,9.70
2017,05,20,15,38,7.80
2017,05,20,15,39,7.30
2017,05,20,15,40,7.30
2017,05,20,15,41,5.70
2017,05,20,15,42,7.90
2017,05,20,15,43,8.20
2017,05,20,15,44,8.00
2017,05,20,15,45,7.70
2017,05,20,15,46,7.20
2017,05,20,15,47,7.80
2017,05,20,15,48,8.90
2017,05,20,15,49,7.70
2017,05,20,15,50,7.20
2017,05,20,15,51,8.10
2017,05,20,15,52,7.30
2017,05,20,15,53,8.50
2017,05,20,15,54,8.70
2017,05,20,15,55,8.50
2017,05,20,15,56,7.90
2017,05,20,15,57,8.80
2017,05,20,15,58,9.20
2017,05,20,15,59,8.70
2017,05,20,16,00,7.40
2017,05,20,16,01,8.90
2017,05,20,16,02,8.40
2017,05,20,16,03,7.50
2017,05,20,16,04,7.70
2017,05,20,16,05,7.60
2017,05,20,16,06,9.10
2017,05,20,16,07,8.20
2017,05,20,16,08,8.40
2017,05,20,16,09,7.80
2017,05,20,16,10,8.40
2017,05,20,16,11,8.90
2017,05,20,16,12,7.70
2017,05,20,16,13,7.30
2017,05,20,16,14,5.40
2017,05,20,16,15,5.00
2017,05,20,16,16,5.00
2017,05,20,16,17,3.10
2017,05,20,16,18,4.80
2017,05,20,16,19,5.00
2017,05,20,16,20,6.00
2017,05,20,16,21,3.40
2017,05,20,16,22,4.70
2017,05,20,16,23,8.00
2017,05,20,16,24,6.40
2017,05,20,16,25,4.70
2017,05,20,16,26,2.80
2017,05,20,16,27,4.10
2017,05,20,16,28,4.00
2017,05,20,16,29,4.10
2017,05,20,16,30,4.20
2017,05,20,16,31,5.80
2017,05,20,16,32,3.50
2017,05,20,16,33,4.20
2017,05,20,16,34,3.40
2017,05,20,16,35,3.70
2017,05,20,16,36,5.10
2017,05,20,16,37,3.90
2017,05,20,16,38,4.40
2017,05,20,16,39,4.30
2017,05,20,16,40,4.70
2017,05,20,16,41,7.50
2017,05,20,16,42,6.50
2017,05,20,16,43,6.10
2017,05,20,16,44,4.80
2017,05,20,16,45,4.60
2017,05,20,16,46,2.70
2017,05,20,16,47,3.60
2017,05,20,16,48,5.60
2017,05,20,16,49,5.40
2017,05,20,16,50,5.80
2017,05,20,16,51,5.30
2017,05,20,16,52,3.90
2017,05,20,16,53,5.70
2017,05,20,16,54,6.00
2017,05,20,16,55,5.50
2017,05,20,16,56,8.10
2017,05,20,16,57,7.40
2017,05,20,16,58,7.40
2017,05,20,16,59,8.40
2017,05,20,17,00,5.10
2017,05,20,17,01,5.40
2017,05,20,17,02,6.80
2017,05,20,17,03,8.90
2017,05,20,17,04,8.60
2017,05,20,17,05,10.10
2017,05,20,17,06,8.40
2017,05,20,17,07,9.90
2017,05,20,17,08,7.20
2017,05,20,17,09,6.10
2017,05,20,17,10,7.00
2017,05,20,17,11,4.90
2017,05,20,17,12,3.80
2017,05,20,17,13,5.10
2017,05,20,17,14,5.60
2017,05,20,17,15,3.80
2017,05,20,17,16,4.70
2017,05,20,17,17,9.10
2017,05,20,17,18,6.70
2017,05,20,17,19,7.80
2017,05,20,17,20,9.20
2017,05,20,17,21,8.20
2017,05,20,17,22,9.70
2017,05,20,17,23,9.60
2017,05,20,17,24,8.10
2017,05,20,17,25,5.20
2017,05,20,17,26,5.90
2017,05,20,17,27,4.80
2017,05,20,17,28,5.40
2017,05,20,17,29,6.00
2017,05,20,17,30,6.80
2017,05,20,17,31,4.90
2017,05,20,17,32,6.30
2017,05,20,17,33,6.10
2017,05,20,17,34,6.80
2017,05,20,17,35,5.90
2017,05,20,17,36,5.60
2017,05,20,17,37,8.60
2017,05,20,17,38,9.00
2017,05,20,17,39,8.40
2017,05,20,17,40,5.70
2017,05,20,17,41,4.60
2017,05,20,17,42,4.40
2017,05,20,17,43,4.40
2017,05,20,17,44,4.70
2017,05,20,17,45,3.20
2017,05,20,17,46,4.70
2017,05,20,17,47,4.00
2017,05,20,17,48,4.40
2017,05,20,17,49,7.80
2017,05,20,17,50,7.70
2017,05,20,17,51,7.40
2017,05,20,17,52,5.20
2017,05,20,17,53,2.60
2017,05,20,17,54,4.20
2017,05,20,17,55,4.10
2017,05,20,17,56,5.80
2017,05,20,17,57,4.40
2017,05,20,17,58,0.70
2017,05,20,17,59,2.30
2017,05,20,18,00,2.40
2017,05,20,18,01,5.10
2017,05,20,18,02,4.60
2017,05,20,18,03,4.00